Location: Finney State Fishing Lake and Wildlife Area
(38.1834°N, 100.3310°W)
Time: 13:39:45
(UTC+00:00)

Lacrosse 5 - Pass Details

Date: 17 October 2021
Orbit: 714 x 724 km, 57.0° (Epoch: 28 August)

Event Time Altitude Azimuth Distance (km) Brightness Sun altitude
Rises 12:11:50 0° 324° (NW) 3,134 4.8 -8.7°
Reaches altitude 10° 12:14:29 10° 335° (NNW) 2,209 4.1 -8.2°
Maximum altitude 12:18:58 30° 36° (NE) 1,271 3.5 -7.3°
Drops below altitude 10° 12:23:24 10° 98° (E) 2,195 6.2 -6.5°
Sets 12:26:02 0° 109° (ESE) 3,111 7.3 -5.9°
